Time,TemperatureF,DewpointF,PressureIn,WindDirection,WindDirectionDegrees,WindSpeedMPH,WindSpeedGustMPH,Humidity,HourlyPrecipIn,Conditions,Clouds,dailyrainin,SoftwareType,DateUTC
2013-11-23 00:04:00,26.1,17.3,0.00,SW,225,0.0,0.0,69,0.00,,---,0.00,VWS V14.01,2013-11-23 06:04:00,
2013-11-23 00:09:00,25.7,16.6,0.00,North,0,0.0,2.9,68,0.00,,---,0.00,VWS V14.01,2013-11-23 06:09:00,
2013-11-23 00:14:00,25.7,16.6,0.00,NW,315,0.0,2.9,68,0.00,,---,0.00,VWS V14.01,2013-11-23 06:14:00,
2013-11-23 00:19:00,25.9,16.8,0.00,NW,315,1.1,2.9,68,0.00,,---,0.00,VWS V14.01,2013-11-23 06:19:00,
2013-11-23 00:24:00,25.9,16.8,0.00,NW,315,0.0,2.9,68,0.00,,---,0.00,VWS V14.01,2013-11-23 06:24:00,
2013-11-23 00:29:00,25.9,16.5,0.00,NW,315,0.0,2.9,67,0.00,,---,0.00,VWS V14.01,2013-11-23 06:29:00,
2013-11-23 00:34:00,25.9,16.5,0.00,NW,315,1.6,2.0,67,0.00,,---,0.00,VWS V14.01,2013-11-23 06:34:00,
2013-11-23 00:39:00,25.9,16.5,0.00,NW,315,3.6,4.0,67,0.00,,---,0.00,VWS V14.01,2013-11-23 06:39:00,
2013-11-23 00:44:00,25.9,16.5,0.00,NW,315,3.8,4.7,67,0.00,,---,0.00,VWS V14.01,2013-11-23 06:44:00,
2013-11-23 00:49:00,25.9,16.5,0.00,NW,315,2.7,4.7,67,0.00,,---,0.00,VWS V14.01,2013-11-23 06:49:00,
2013-11-23 00:54:00,26.4,15.9,0.00,NW,315,7.4,7.4,64,0.00,,---,0.00,VWS V14.01,2013-11-23 06:54:00,
2013-11-23 00:59:00,26.4,15.9,0.00,NW,315,3.6,7.4,64,0.00,,---,0.00,VWS V14.01,2013-11-23 06:59:00,
2013-11-23 01:04:00,26.6,15.0,0.00,NW,315,5.6,6.0,61,0.00,,---,0.00,VWS V14.01,2013-11-23 07:04:00,
2013-11-23 01:09:00,26.8,14.8,0.00,NW,315,5.8,6.0,60,0.00,,---,0.00,VWS V14.01,2013-11-23 07:09:00,
2013-11-23 01:14:00,27.0,14.6,0.00,NW,315,5.8,7.6,59,0.00,,---,0.00,VWS V14.01,2013-11-23 07:14:00,
2013-11-23 01:19:00,27.0,14.6,0.00,NW,315,4.3,7.8,59,0.00,,---,0.00,VWS V14.01,2013-11-23 07:19:00,
2013-11-23 01:24:00,26.6,13.9,0.00,NW,315,5.4,7.8,58,0.00,,---,0.00,VWS V14.01,2013-11-23 07:24:00,
2013-11-23 01:29:00,26.6,13.9,0.00,NW,315,5.6,7.8,58,0.00,,---,0.00,VWS V14.01,2013-11-23 07:29:00,
2013-11-23 01:34:00,26.4,13.7,0.00,NW,315,3.8,4.0,58,0.00,,---,0.00,VWS V14.01,2013-11-23 07:34:00,
2013-11-23 01:39:00,26.3,13.1,0.00,NW,315,3.6,5.4,57,0.00,,---,0.00,VWS V14.01,2013-11-23 07:39:00,
2013-11-23 01:44:00,26.3,13.1,0.00,NW,315,2.2,5.4,57,0.00,,---,0.00,VWS V14.01,2013-11-23 07:44:00,
2013-11-23 01:49:00,26.1,12.9,0.00,NW,315,4.0,4.3,57,0.00,,---,0.00,VWS V14.01,2013-11-23 07:49:00,
2013-11-23 01:54:00,26.1,12.9,0.00,NNW,338,3.6,4.3,57,0.00,,---,0.00,VWS V14.01,2013-11-23 07:54:00,
2013-11-23 01:59:00,25.9,12.4,0.00,NW,315,3.8,4.3,56,0.00,,---,0.00,VWS V14.01,2013-11-23 07:59:00,
2013-11-23 02:04:00,25.7,12.2,0.00,NNW,338,4.3,4.3,56,0.00,,---,0.00,VWS V14.01,2013-11-23 08:04:00,
2013-11-23 02:09:00,25.7,11.8,0.00,NW,315,4.0,4.3,55,0.00,,---,0.00,VWS V14.01,2013-11-23 08:09:00,
2013-11-23 02:14:00,25.5,11.6,0.00,NW,315,3.1,4.3,55,0.00,,---,0.00,VWS V14.01,2013-11-23 08:14:00,
2013-11-23 02:19:00,25.5,12.0,0.00,NW,315,2.9,3.8,56,0.00,,---,0.00,VWS V14.01,2013-11-23 08:19:00,
2013-11-23 02:24:00,25.4,11.5,0.00,NW,315,3.1,3.8,55,0.00,,---,0.00,VWS V14.01,2013-11-23 08:24:00,
2013-11-23 02:29:00,25.4,11.9,0.00,North,0,2.7,3.8,56,0.00,,---,0.00,VWS V14.01,2013-11-23 08:29:00,
2013-11-23 02:34:00,25.2,11.7,0.00,NNW,338,1.6,3.4,56,0.00,,---,0.00,VWS V14.01,2013-11-23 08:34:00,
2013-11-23 02:39:00,25.0,11.5,0.00,North,0,3.4,4.9,56,0.00,,---,0.00,VWS V14.01,2013-11-23 08:39:00,
2013-11-23 02:44:00,24.8,11.8,0.00,NNW,338,3.4,4.9,57,0.00,,---,0.00,VWS V14.01,2013-11-23 08:44:00,
2013-11-23 02:49:00,24.6,12.0,0.00,North,0,3.1,4.3,58,0.00,,---,0.00,VWS V14.01,2013-11-23 08:49:00,
2013-11-23 02:54:00,24.6,12.0,0.00,NNW,338,3.8,4.3,58,0.00,,---,0.00,VWS V14.01,2013-11-23 08:54:00,
2013-11-23 02:59:00,24.6,12.0,0.00,WNW,292,3.1,4.3,58,0.00,,---,0.00,VWS V14.01,2013-11-23 08:59:00,
2013-11-23 03:04:00,24.3,11.6,0.00,NNW,338,2.0,3.4,58,0.00,,---,0.00,VWS V14.01,2013-11-23 09:04:00,
2013-11-23 03:09:00,24.3,11.6,0.00,NNW,338,2.0,3.4,58,0.00,,---,0.00,VWS V14.01,2013-11-23 09:09:00,
2013-11-23 03:14:00,24.1,11.5,0.00,NW,315,4.3,4.3,58,0.00,,---,0.00,VWS V14.01,2013-11-23 09:14:00,
2013-11-23 03:19:00,23.9,11.3,0.00,NW,315,3.6,3.6,58,0.00,,---,0.00,VWS V14.01,2013-11-23 09:19:00,
2013-11-23 03:24:00,23.9,11.3,0.00,North,0,2.7,4.5,58,0.00,,---,0.00,VWS V14.01,2013-11-23 09:24:00,
2013-11-23 03:29:00,23.7,11.1,0.00,North,0,4.0,5.4,58,0.00,,---,0.00,VWS V14.01,2013-11-23 09:29:00,
2013-11-23 03:34:00,23.7,11.5,0.00,North,0,3.1,4.3,59,0.00,,---,0.00,VWS V14.01,2013-11-23 09:34:00,
2013-11-23 03:39:00,23.7,11.5,0.00,North,0,3.4,7.2,59,0.00,,---,0.00,VWS V14.01,2013-11-23 09:39:00,
2013-11-23 03:44:00,23.7,11.5,0.00,NW,315,3.8,7.2,59,0.00,,---,0.00,VWS V14.01,2013-11-23 09:44:00,
2013-11-23 03:49:00,23.7,11.5,0.00,NNW,338,3.4,4.3,59,0.00,,---,0.00,VWS V14.01,2013-11-23 09:49:00,
2013-11-23 03:54:00,23.7,11.5,0.00,NW,315,3.1,4.9,59,0.00,,---,0.00,VWS V14.01,2013-11-23 09:54:00,
2013-11-23 03:59:00,23.7,11.5,0.00,NW,315,3.8,4.9,59,0.00,,---,0.00,VWS V14.01,2013-11-23 09:59:00,
2013-11-23 04:03:00,23.4,11.2,0.00,North,0,3.1,4.0,59,0.00,,---,0.00,VWS V14.01,2013-11-23 10:03:00,
2013-11-23 04:08:00,23.4,11.2,0.00,North,0,2.7,4.0,59,0.00,,---,0.00,VWS V14.01,2013-11-23 10:08:00,
2013-11-23 04:13:00,23.2,11.0,0.00,North,0,2.5,4.0,59,0.00,,---,0.00,VWS V14.01,2013-11-23 10:13:00,
2013-11-23 04:18:00,23.2,11.4,0.00,North,0,3.8,3.8,60,0.00,,---,0.00,VWS V14.01,2013-11-23 10:18:00,
2013-11-23 04:23:00,23.2,11.4,0.00,NW,315,2.9,3.8,60,0.00,,---,0.00,VWS V14.01,2013-11-23 10:23:00,
2013-11-23 04:28:00,23.2,11.4,0.00,North,0,3.4,3.8,60,0.00,,---,0.00,VWS V14.01,2013-11-23 10:28:00,
2013-11-23 04:33:00,23.2,11.4,0.00,NW,315,2.9,3.4,60,0.00,,---,0.00,VWS V14.01,2013-11-23 10:33:00,
2013-11-23 04:38:00,23.2,11.4,0.00,NNW,338,2.9,3.4,60,0.00,,---,0.00,VWS V14.01,2013-11-23 10:38:00,
2013-11-23 04:43:00,23.2,11.4,0.00,NNW,338,4.0,4.3,60,0.00,,---,0.00,VWS V14.01,2013-11-23 10:43:00,
2013-11-23 04:48:00,23.2,11.8,0.00,North,0,2.5,5.8,61,0.00,,---,0.00,VWS V14.01,2013-11-23 10:48:00,
2013-11-23 04:53:00,23.2,11.8,0.00,NNW,338,4.3,5.8,61,0.00,,---,0.00,VWS V14.01,2013-11-23 10:53:00,
2013-11-23 04:58:00,23.2,11.8,0.00,North,0,4.7,6.7,61,0.00,,---,0.00,VWS V14.01,2013-11-23 10:58:00,
2013-11-23 05:03:00,23.2,11.8,0.00,North,0,4.9,6.3,61,0.00,,---,0.00,VWS V14.01,2013-11-23 11:03:00,
2013-11-23 05:08:00,23.2,11.8,0.00,North,0,5.4,7.2,61,0.00,,---,0.00,VWS V14.01,2013-11-23 11:08:00,
2013-11-23 05:13:00,23.2,11.8,0.00,North,0,4.0,7.2,61,0.00,,---,0.00,VWS V14.01,2013-11-23 11:13:00,
2013-11-23 05:18:00,23.0,11.6,0.00,North,0,2.5,4.3,61,0.00,,---,0.00,VWS V14.01,2013-11-23 11:18:00,
2013-11-23 05:23:00,23.0,11.6,0.00,North,0,3.8,4.3,61,0.00,,---,0.00,VWS V14.01,2013-11-23 11:23:00,
2013-11-23 05:28:00,23.0,11.6,0.00,North,0,4.0,5.4,61,0.00,,---,0.00,VWS V14.01,2013-11-23 11:28:00,
2013-11-23 05:33:00,22.7,11.2,0.00,North,0,3.6,6.0,61,0.00,,---,0.00,VWS V14.01,2013-11-23 11:33:00,
2013-11-23 05:38:00,22.7,11.2,0.00,North,0,3.8,6.0,61,0.00,,---,0.00,VWS V14.01,2013-11-23 11:38:00,
2013-11-23 05:43:00,22.7,11.2,0.00,North,0,4.3,6.0,61,0.00,,---,0.00,VWS V14.01,2013-11-23 11:43:00,
2013-11-23 05:48:00,22.7,11.2,0.00,North,0,2.2,3.6,61,0.00,,---,0.00,VWS V14.01,2013-11-23 11:48:00,
2013-11-23 05:53:00,21.9,10.9,0.00,NW,315,2.9,4.0,62,0.00,,---,0.00,VWS V14.01,2013-11-23 11:53:00,
2013-11-23 05:58:00,21.6,10.6,0.00,NNW,338,1.6,4.0,62,0.00,,---,0.00,VWS V14.01,2013-11-23 11:58:00,
2013-11-23 06:03:00,21.6,10.6,0.00,NW,315,2.5,3.1,62,0.00,,---,0.00,VWS V14.01,2013-11-23 12:03:00,
2013-11-23 06:08:00,21.6,10.6,0.00,North,0,3.1,3.4,62,0.00,,---,0.00,VWS V14.01,2013-11-23 12:08:00,
2013-11-23 06:13:00,21.6,10.6,0.00,North,0,2.7,3.4,62,0.00,,---,0.00,VWS V14.01,2013-11-23 12:13:00,
2013-11-23 06:18:00,20.3,10.4,0.00,NNW,338,3.1,3.4,65,0.00,,---,0.00,VWS V14.01,2013-11-23 12:18:00,
2013-11-23 06:23:00,20.1,10.3,0.00,North,0,4.3,4.9,65,0.00,,---,0.00,VWS V14.01,2013-11-23 12:23:00,
2013-11-23 06:28:00,20.0,10.1,0.00,North,0,2.5,4.9,65,0.00,,---,0.00,VWS V14.01,2013-11-23 12:28:00,
2013-11-23 06:33:00,20.0,10.1,0.00,North,0,2.5,2.5,65,0.00,,---,0.00,VWS V14.01,2013-11-23 12:33:00,
2013-11-23 06:38:00,20.0,10.1,0.00,North,0,2.0,3.4,65,0.00,,---,0.00,VWS V14.01,2013-11-23 12:38:00,
2013-11-23 06:43:00,20.0,10.1,0.00,NW,315,1.6,3.4,65,0.00,,---,0.00,VWS V14.01,2013-11-23 12:43:00,
2013-11-23 06:48:00,19.2,9.4,0.00,NW,315,0.0,2.0,65,0.00,,---,0.00,VWS V14.01,2013-11-23 12:48:00,
2013-11-23 06:53:00,19.2,9.4,0.00,NW,315,2.7,2.7,65,0.00,,---,0.00,VWS V14.01,2013-11-23 12:53:00,
2013-11-23 06:58:00,19.2,9.4,0.00,NW,315,2.0,2.7,65,0.00,,---,0.00,VWS V14.01,2013-11-23 12:58:00,
2013-11-23 07:03:00,18.7,9.6,0.00,North,0,2.7,3.1,67,0.00,,---,0.00,VWS V14.01,2013-11-23 13:03:00,
2013-11-23 07:08:00,18.5,9.7,0.00,North,0,2.2,3.1,68,0.00,,---,0.00,VWS V14.01,2013-11-23 13:08:00,
2013-11-23 07:13:00,18.3,9.6,0.00,North,0,2.9,3.4,68,0.00,,---,0.00,VWS V14.01,2013-11-23 13:13:00,
2013-11-23 07:18:00,17.6,8.9,0.00,NW,315,3.6,4.3,68,0.00,,---,0.00,VWS V14.01,2013-11-23 13:18:00,
2013-11-23 07:23:00,17.6,8.9,0.00,NNW,338,2.5,4.3,68,0.00,,---,0.00,VWS V14.01,2013-11-23 13:23:00,
2013-11-23 07:28:00,17.6,8.9,0.00,North,0,3.4,4.3,68,0.00,,---,0.00,VWS V14.01,2013-11-23 13:28:00,
2013-11-23 07:33:00,17.4,9.7,0.00,North,0,3.6,3.6,71,0.00,,---,0.00,VWS V14.01,2013-11-23 13:33:00,
2013-11-23 07:38:00,17.4,9.7,0.00,North,0,3.6,4.0,71,0.00,,---,0.00,VWS V14.01,2013-11-23 13:38:00,
2013-11-23 07:43:00,17.4,9.7,0.00,North,0,3.8,4.0,71,0.00,,---,0.00,VWS V14.01,2013-11-23 13:43:00,
2013-11-23 07:48:00,17.1,9.9,0.00,NNE,22,3.8,4.3,73,0.00,,---,0.00,VWS V14.01,2013-11-23 13:48:00,
2013-11-23 07:53:00,17.1,10.2,0.00,North,0,3.8,4.9,74,0.00,,---,0.00,VWS V14.01,2013-11-23 13:53:00,
2013-11-23 07:58:00,17.4,10.9,0.00,North,0,3.8,4.9,75,0.00,,---,0.00,VWS V14.01,2013-11-23 13:58:00,
2013-11-23 08:03:00,17.6,11.4,0.00,North,0,3.4,4.3,76,0.00,,---,0.00,VWS V14.01,2013-11-23 14:03:00,
2013-11-23 08:08:00,18.2,11.6,0.00,NNE,22,3.1,4.3,75,0.00,,---,0.00,VWS V14.01,2013-11-23 14:08:00,
2013-11-23 08:13:00,18.2,11.6,0.00,NNE,22,3.6,4.7,75,0.00,,---,0.00,VWS V14.01,2013-11-23 14:13:00,
2013-11-23 08:18:00,18.7,12.4,0.00,NNE,22,6.5,6.5,76,0.00,,---,0.00,VWS V14.01,2013-11-23 14:18:00,
2013-11-23 08:23:00,19.2,12.6,0.00,NNE,22,7.2,9.2,75,0.00,,---,0.00,VWS V14.01,2013-11-23 14:23:00,
2013-11-23 08:28:00,19.4,12.8,0.00,NE,45,5.6,9.2,75,0.00,,---,0.00,VWS V14.01,2013-11-23 14:28:00,
2013-11-23 08:33:00,20.1,12.6,0.00,NE,45,3.6,5.4,72,0.00,,---,0.00,VWS V14.01,2013-11-23 14:33:00,
2013-11-23 08:38:00,20.3,12.4,0.00,NE,45,4.0,5.4,71,0.00,,---,0.00,VWS V14.01,2013-11-23 14:38:00,
2013-11-23 08:43:00,20.9,12.3,0.00,ESE,112,3.8,5.4,69,0.00,,---,0.00,VWS V14.01,2013-11-23 14:43:00,
2013-11-23 08:48:00,21.2,12.0,0.00,NE,45,4.0,4.9,67,0.00,,---,0.00,VWS V14.01,2013-11-23 14:48:00,
2013-11-23 08:53:00,21.4,12.2,0.00,NE,45,3.4,6.0,67,0.00,,---,0.00,VWS V14.01,2013-11-23 14:53:00,
2013-11-23 08:58:00,21.6,11.6,0.00,ESE,112,4.0,6.0,65,0.00,,---,0.00,VWS V14.01,2013-11-23 14:58:00,
2013-11-23 09:03:00,21.8,11.5,0.00,ESE,112,3.4,4.7,64,0.00,,---,0.00,VWS V14.01,2013-11-23 15:03:00,
2013-11-23 09:08:00,22.1,11.8,0.00,East,90,3.4,4.7,64,0.00,,---,0.00,VWS V14.01,2013-11-23 15:08:00,
2013-11-23 09:13:00,22.1,11.1,0.00,East,90,3.4,5.8,62,0.00,,---,0.00,VWS V14.01,2013-11-23 15:13:00,
2013-11-23 09:18:00,22.3,11.3,0.00,NE,45,4.9,6.0,62,0.00,,---,0.00,VWS V14.01,2013-11-23 15:18:00,
2013-11-23 09:23:00,22.3,11.3,0.00,East,90,4.0,6.0,62,0.00,,---,0.00,VWS V14.01,2013-11-23 15:23:00,
2013-11-23 09:28:00,22.5,11.1,0.00,NE,45,4.0,6.3,61,0.00,,---,0.00,VWS V14.01,2013-11-23 15:28:00,
2013-11-23 09:33:00,23.6,12.1,0.00,NE,45,4.9,5.6,61,0.00,,---,0.00,VWS V14.01,2013-11-23 15:33:00,
2013-11-23 09:38:00,23.7,11.9,0.00,East,90,6.5,6.5,60,0.00,,---,0.00,VWS V14.01,2013-11-23 15:38:00,
2013-11-23 09:43:00,23.9,11.7,0.00,East,90,6.0,6.5,59,0.00,,---,0.00,VWS V14.01,2013-11-23 15:43:00,
2013-11-23 09:48:00,23.9,11.7,0.00,East,90,5.4,6.7,59,0.00,,---,0.00,VWS V14.01,2013-11-23 15:48:00,
2013-11-23 09:53:00,24.8,12.5,0.00,East,90,3.8,6.7,59,0.00,,---,0.00,VWS V14.01,2013-11-23 15:53:00,
2013-11-23 09:58:00,26.1,13.3,0.00,NE,45,4.0,7.2,58,0.00,,---,0.00,VWS V14.01,2013-11-23 15:58:00,
2013-11-23 10:03:00,26.6,13.4,0.00,SE,135,3.4,7.6,57,0.00,,---,0.00,VWS V14.01,2013-11-23 16:03:00,
2013-11-23 10:08:00,26.8,13.2,0.00,East,90,3.8,7.6,56,0.00,,---,0.00,VWS V14.01,2013-11-23 16:08:00,
2013-11-23 10:13:00,26.8,13.2,0.00,ESE,112,5.4,7.6,56,0.00,,---,0.00,VWS V14.01,2013-11-23 16:13:00,
2013-11-23 10:18:00,27.0,13.0,0.00,East,90,2.9,6.0,55,0.00,,---,0.00,VWS V14.01,2013-11-23 16:18:00,
2013-11-23 10:23:00,27.2,13.1,0.00,SE,135,3.1,6.3,55,0.00,,---,0.00,VWS V14.01,2013-11-23 16:23:00,
2013-11-23 10:28:00,28.2,14.2,0.00,SE,135,4.0,6.5,55,0.00,,---,0.00,VWS V14.01,2013-11-23 16:28:00,
2013-11-23 10:33:00,28.2,13.7,0.00,SW,225,3.4,5.8,54,0.00,,---,0.00,VWS V14.01,2013-11-23 16:33:00,
2013-11-23 10:38:00,29.0,14.4,0.00,SSE,158,6.0,7.4,54,0.00,,---,0.00,VWS V14.01,2013-11-23 16:38:00,
2013-11-23 10:43:00,29.9,14.8,0.00,South,180,5.4,7.4,53,0.00,,---,0.00,VWS V14.01,2013-11-23 16:43:00,
2013-11-23 10:48:00,29.9,14.8,0.00,SSE,158,4.9,6.5,53,0.00,,---,0.00,VWS V14.01,2013-11-23 16:48:00,
2013-11-23 10:53:00,29.5,14.5,0.00,SE,135,6.0,7.4,53,0.00,,---,0.00,VWS V14.01,2013-11-23 16:53:00,
2013-11-23 10:58:00,29.7,14.2,0.00,South,180,3.8,10.7,52,0.00,,---,0.00,VWS V14.01,2013-11-23 16:58:00,
2013-11-23 11:03:00,30.8,15.2,0.00,SSE,158,5.6,6.0,52,0.00,,---,0.00,VWS V14.01,2013-11-23 17:03:00,
2013-11-23 11:08:00,30.0,14.6,0.00,South,180,5.6,8.7,52,0.00,,---,0.00,VWS V14.01,2013-11-23 17:08:00,
2013-11-23 11:13:00,30.8,15.2,0.00,SE,135,2.9,8.7,52,0.00,,---,0.00,VWS V14.01,2013-11-23 17:13:00,
2013-11-23 11:18:00,32.4,16.3,0.00,SW,225,2.7,5.4,51,0.00,,---,0.00,VWS V14.01,2013-11-23 17:18:00,
2013-11-23 11:23:00,33.5,16.8,0.00,SE,135,6.3,9.2,50,0.00,,---,0.00,VWS V14.01,2013-11-23 17:23:00,
2013-11-23 11:28:00,34.9,18.2,0.00,SE,135,2.9,9.2,50,0.00,,---,0.00,VWS V14.01,2013-11-23 17:28:00,
2013-11-23 11:33:00,35.3,18.5,0.00,SE,135,3.6,6.5,50,0.00,,---,0.00,VWS V14.01,2013-11-23 17:33:00,
2013-11-23 11:38:00,35.3,17.5,0.00,SE,135,3.1,9.8,48,0.00,,---,0.00,VWS V14.01,2013-11-23 17:38:00,
2013-11-23 11:43:00,36.2,18.4,0.00,South,180,5.4,9.8,48,0.00,,---,0.00,VWS V14.01,2013-11-23 17:43:00,
2013-11-23 11:48:00,36.2,17.9,0.00,SE,135,7.2,9.6,47,0.00,,---,0.00,VWS V14.01,2013-11-23 17:48:00,
2013-11-23 11:53:00,35.3,17.1,0.00,SSE,158,3.1,9.6,47,0.00,,---,0.00,VWS V14.01,2013-11-23 17:53:00,
2013-11-23 11:58:00,35.8,17.1,0.00,SE,135,2.7,11.9,46,0.00,,---,0.00,VWS V14.01,2013-11-23 17:58:00,
2013-11-23 12:03:00,36.3,17.5,0.00,SE,135,5.6,5.6,46,0.00,,---,0.00,VWS V14.01,2013-11-23 18:03:00,
2013-11-23 12:08:00,35.6,16.9,0.00,SSE,158,3.8,8.7,46,0.00,,---,0.00,VWS V14.01,2013-11-23 18:08:00,
2013-11-23 12:13:00,35.6,16.9,0.00,SSE,158,1.1,8.7,46,0.00,,---,0.00,VWS V14.01,2013-11-23 18:13:00,
2013-11-23 12:18:00,36.2,16.9,0.00,NNW,338,0.9,6.3,45,0.00,,---,0.00,VWS V14.01,2013-11-23 18:18:00,
2013-11-23 12:23:00,36.3,17.0,0.00,SSE,158,4.3,6.5,45,0.00,,---,0.00,VWS V14.01,2013-11-23 18:23:00,
2013-11-23 12:28:00,36.0,16.7,0.00,East,90,3.8,6.5,45,0.00,,---,0.00,VWS V14.01,2013-11-23 18:28:00,
2013-11-23 12:33:00,36.0,16.7,0.00,SE,135,2.5,5.8,45,0.00,,---,0.00,VWS V14.01,2013-11-23 18:33:00,
2013-11-23 12:38:00,36.9,17.5,0.00,East,90,2.9,6.0,45,0.00,,---,0.00,VWS V14.01,2013-11-23 18:38:00,
2013-11-23 12:43:00,37.6,18.2,0.00,SE,135,2.5,6.7,45,0.00,,---,0.00,VWS V14.01,2013-11-23 18:43:00,
2013-11-23 12:48:00,36.3,17.0,0.00,SSE,158,5.6,7.8,45,0.00,,---,0.00,VWS V14.01,2013-11-23 18:48:00,
2013-11-23 12:53:00,37.2,17.9,0.00,SE,135,7.6,7.8,45,0.00,,---,0.00,VWS V14.01,2013-11-23 18:53:00,
2013-11-23 12:58:00,37.6,17.7,0.00,SE,135,6.5,7.8,44,0.00,,---,0.00,VWS V14.01,2013-11-23 18:58:00,
2013-11-23 13:03:00,37.8,17.8,0.00,SE,135,7.2,8.1,44,0.00,,---,0.00,VWS V14.01,2013-11-23 19:03:00,
2013-11-23 13:08:00,36.9,17.0,0.00,WSW,248,5.8,10.7,44,0.00,,---,0.00,VWS V14.01,2013-11-23 19:08:00,
2013-11-23 13:13:00,37.8,17.8,0.00,SE,135,6.0,10.7,44,0.00,,---,0.00,VWS V14.01,2013-11-23 19:13:00,
2013-11-23 13:18:00,38.7,18.7,0.00,SW,225,3.1,6.0,44,0.00,,---,0.00,VWS V14.01,2013-11-23 19:18:00,
2013-11-23 13:23:00,38.5,18.0,0.00,South,180,4.0,7.4,43,0.00,,---,0.00,VWS V14.01,2013-11-23 19:23:00,
2013-11-23 13:28:00,38.3,18.3,0.00,South,180,2.7,8.5,44,0.00,,---,0.00,VWS V14.01,2013-11-23 19:28:00,
2013-11-23 13:33:00,38.5,18.0,0.00,SW,225,6.3,6.3,43,0.00,,---,0.00,VWS V14.01,2013-11-23 19:33:00,
2013-11-23 13:38:00,38.3,17.8,0.00,South,180,2.9,6.3,43,0.00,,---,0.00,VWS V14.01,2013-11-23 19:38:00,
2013-11-23 13:43:00,38.9,18.3,0.00,SSE,158,6.3,6.3,43,0.00,,---,0.00,VWS V14.01,2013-11-23 19:43:00,
2013-11-23 13:48:00,38.0,17.5,0.00,SE,135,6.5,8.5,43,0.00,,---,0.00,VWS V14.01,2013-11-23 19:48:00,
2013-11-23 13:53:00,38.0,17.5,0.00,South,180,2.7,8.5,43,0.00,,---,0.00,VWS V14.01,2013-11-23 19:53:00,
2013-11-23 13:58:00,38.0,17.5,0.00,SE,135,3.8,9.6,43,0.00,,---,0.00,VWS V14.01,2013-11-23 19:58:00,
2013-11-23 14:03:00,38.1,17.6,0.00,South,180,3.1,7.4,43,0.00,,---,0.00,VWS V14.01,2013-11-23 20:03:00,
2013-11-23 14:08:00,38.0,16.9,0.00,South,180,2.5,8.1,42,0.00,,---,0.00,VWS V14.01,2013-11-23 20:08:00,
2013-11-23 14:13:00,37.1,16.6,0.00,SSW,202,3.6,8.1,43,0.00,,---,0.00,VWS V14.01,2013-11-23 20:13:00,
2013-11-23 14:18:00,38.0,17.5,0.00,SE,135,7.4,7.4,43,0.00,,---,0.00,VWS V14.01,2013-11-23 20:18:00,
2013-11-23 14:23:00,36.9,16.5,0.00,SE,135,8.1,9.6,43,0.00,,---,0.00,VWS V14.01,2013-11-23 20:23:00,
2013-11-23 14:28:00,36.7,16.3,0.00,SE,135,3.8,10.3,43,0.00,,---,0.00,VWS V14.01,2013-11-23 20:28:00,
2013-11-23 14:33:00,36.9,16.5,0.00,SW,225,3.8,7.8,43,0.00,,---,0.00,VWS V14.01,2013-11-23 20:33:00,
2013-11-23 14:38:00,36.7,16.3,0.00,South,180,3.6,7.8,43,0.00,,---,0.00,VWS V14.01,2013-11-23 20:38:00,
2013-11-23 14:43:00,36.5,16.2,0.00,South,180,5.8,7.8,43,0.00,,---,0.00,VWS V14.01,2013-11-23 20:43:00,
2013-11-23 14:48:00,34.7,14.5,0.00,SE,135,3.4,7.6,43,0.00,,---,0.00,VWS V14.01,2013-11-23 20:48:00,
2013-11-23 14:53:00,34.2,14.0,0.00,SE,135,2.7,7.6,43,0.00,,---,0.00,VWS V14.01,2013-11-23 20:53:00,
2013-11-23 14:58:00,34.2,14.6,0.00,SE,135,4.0,7.6,44,0.00,,---,0.00,VWS V14.01,2013-11-23 20:58:00,
2013-11-23 15:03:00,34.4,14.7,0.00,SE,135,6.0,6.0,44,0.00,,---,0.00,VWS V14.01,2013-11-23 21:03:00,
2013-11-23 15:08:00,34.2,14.6,0.00,South,180,6.0,6.7,44,0.00,,---,0.00,VWS V14.01,2013-11-23 21:08:00,
2013-11-23 15:13:00,34.2,14.6,0.00,South,180,5.4,7.8,44,0.00,,---,0.00,VWS V14.01,2013-11-23 21:13:00,
2013-11-23 15:18:00,34.4,14.7,0.00,South,180,4.0,6.5,44,0.00,,---,0.00,VWS V14.01,2013-11-23 21:18:00,
2013-11-23 15:23:00,34.5,14.9,0.00,SE,135,4.3,7.8,44,0.00,,---,0.00,VWS V14.01,2013-11-23 21:23:00,
2013-11-23 15:28:00,34.7,15.1,0.00,South,180,5.6,7.8,44,0.00,,---,0.00,VWS V14.01,2013-11-23 21:28:00,
2013-11-23 15:33:00,34.7,15.1,0.00,South,180,4.9,7.4,44,0.00,,---,0.00,VWS V14.01,2013-11-23 21:33:00,
2013-11-23 15:38:00,34.5,14.9,0.00,SSE,158,6.0,8.7,44,0.00,,---,0.00,VWS V14.01,2013-11-23 21:38:00,
2013-11-23 15:43:00,35.1,15.4,0.00,SSE,158,6.0,8.7,44,0.00,,---,0.00,VWS V14.01,2013-11-23 21:43:00,
2013-11-23 15:48:00,35.6,15.9,0.00,SSE,158,7.6,7.6,44,0.00,,---,0.00,VWS V14.01,2013-11-23 21:48:00,
2013-11-23 15:53:00,36.5,16.2,0.00,SW,225,4.9,8.1,43,0.00,,---,0.00,VWS V14.01,2013-11-23 21:53:00,
2013-11-23 15:58:00,36.5,16.2,0.00,SSE,158,4.9,8.1,43,0.00,,---,0.00,VWS V14.01,2013-11-23 21:58:00,
2013-11-23 16:03:00,36.3,16.0,0.00,South,180,6.5,8.5,43,0.00,,---,0.00,VWS V14.01,2013-11-23 22:03:00,
2013-11-23 16:08:00,36.0,15.7,0.00,South,180,3.1,8.5,43,0.00,,---,0.00,VWS V14.01,2013-11-23 22:08:00,
2013-11-23 16:09:00,28.6,10.9,0.00,SE,135,4.7,4.9,47,0.00,,---,0.00,VWS V14.01,2013-11-23 22:09:00,
2013-11-23 16:10:00,28.4,10.8,0.00,SE,135,4.9,4.9,47,0.00,,---,0.00,VWS V14.01,2013-11-23 22:10:00,
2013-11-23 16:11:00,28.4,10.8,0.00,SE,135,4.9,4.9,47,0.00,,---,0.00,VWS V14.01,2013-11-23 22:11:00,
2013-11-23 16:12:00,28.4,10.8,0.00,SE,135,6.3,6.3,47,0.00,,---,0.00,VWS V14.01,2013-11-23 22:12:00,
2013-11-23 16:13:00,35.6,15.3,0.00,SE,135,8.5,8.7,43,0.00,,---,0.00,VWS V14.01,2013-11-23 22:13:00,
2013-11-23 16:18:00,34.9,14.7,0.00,SE,135,6.3,6.5,43,0.00,,---,0.00,VWS V14.01,2013-11-23 22:18:00,
2013-11-23 16:23:00,34.5,14.4,0.00,SSE,158,4.9,8.7,43,0.00,,---,0.00,VWS V14.01,2013-11-23 22:23:00,
2013-11-23 16:28:00,33.5,13.4,0.00,SSE,158,5.8,8.7,43,0.00,,---,0.00,VWS V14.01,2013-11-23 22:28:00,
2013-11-23 16:33:00,32.7,13.2,0.00,SE,135,4.9,7.6,44,0.00,,---,0.00,VWS V14.01,2013-11-23 22:33:00,
2013-11-23 16:38:00,32.6,13.1,0.00,SE,135,6.0,7.6,44,0.00,,---,0.00,VWS V14.01,2013-11-23 22:38:00,
2013-11-23 16:43:00,31.7,12.3,0.00,SE,135,4.0,7.6,44,0.00,,---,0.00,VWS V14.01,2013-11-23 22:43:00,
2013-11-23 16:48:00,31.5,12.1,0.00,SE,135,4.5,4.9,44,0.00,,---,0.00,VWS V14.01,2013-11-23 22:48:00,
2013-11-23 16:53:00,30.4,11.6,0.00,SE,135,3.6,4.9,45,0.00,,---,0.00,VWS V14.01,2013-11-23 22:53:00,
2013-11-23 16:58:00,29.9,11.6,0.00,SE,135,4.0,5.8,46,0.00,,---,0.00,VWS V14.01,2013-11-23 22:58:00,
2013-11-23 17:03:00,29.1,10.9,0.00,SE,135,4.3,4.7,46,0.00,,---,0.00,VWS V14.01,2013-11-23 23:03:00,
2013-11-23 17:08:00,29.1,10.9,0.00,SE,135,4.3,4.7,46,0.00,,---,0.00,VWS V14.01,2013-11-23 23:08:00,
2013-11-23 17:13:00,28.4,10.8,0.00,SE,135,4.0,6.3,47,0.00,,---,0.00,VWS V14.01,2013-11-23 23:13:00,
2013-11-23 17:18:00,28.1,10.9,0.00,SE,135,5.4,5.8,48,0.00,,---,0.00,VWS V14.01,2013-11-23 23:18:00,
2013-11-23 17:23:00,27.7,11.0,0.00,SE,135,5.4,6.3,49,0.00,,---,0.00,VWS V14.01,2013-11-23 23:23:00,
2013-11-23 17:28:00,27.3,10.7,0.00,SE,135,5.4,6.3,49,0.00,,---,0.00,VWS V14.01,2013-11-23 23:28:00,
2013-11-23 17:33:00,27.2,11.0,0.00,SSE,158,5.8,5.8,50,0.00,,---,0.00,VWS V14.01,2013-11-23 23:33:00,
2013-11-23 17:38:00,26.6,10.9,0.00,SE,135,4.0,5.8,51,0.00,,---,0.00,VWS V14.01,2013-11-23 23:38:00,
2013-11-23 17:43:00,25.7,10.1,0.00,SE,135,3.4,5.8,51,0.00,,---,0.00,VWS V14.01,2013-11-23 23:43:00,
2013-11-23 17:48:00,25.2,10.0,0.00,SE,135,3.6,3.8,52,0.00,,---,0.00,VWS V14.01,2013-11-23 23:48:00,
2013-11-23 17:53:00,25.0,10.3,0.00,SE,135,4.3,4.7,53,0.00,,---,0.00,VWS V14.01,2013-11-23 23:53:00,
2013-11-23 17:58:00,24.8,10.6,0.00,SE,135,4.7,4.7,54,0.00,,---,0.00,VWS V14.01,2013-11-23 23:58:00,
2013-11-23 18:03:00,24.8,11.0,0.00,SE,135,5.4,5.4,55,0.00,,---,0.00,VWS V14.01,2013-11-24 00:03:00,
2013-11-23 18:08:00,24.6,10.8,0.00,SE,135,3.8,5.6,55,0.00,,---,0.00,VWS V14.01,2013-11-24 00:08:00,
2013-11-23 18:13:00,24.5,11.0,0.00,SE,135,4.0,5.6,56,0.00,,---,0.00,VWS V14.01,2013-11-24 00:13:00,
2013-11-23 18:18:00,24.3,10.9,0.00,SE,135,4.3,5.8,56,0.00,,---,0.00,VWS V14.01,2013-11-24 00:18:00,
2013-11-23 18:23:00,24.1,11.1,0.00,SE,135,3.8,5.8,57,0.00,,---,0.00,VWS V14.01,2013-11-24 00:23:00,
2013-11-23 18:28:00,24.1,11.1,0.00,SE,135,4.3,5.8,57,0.00,,---,0.00,VWS V14.01,2013-11-24 00:28:00,
2013-11-23 18:33:00,23.7,10.8,0.00,SE,135,3.8,4.5,57,0.00,,---,0.00,VWS V14.01,2013-11-24 00:33:00,
2013-11-23 18:38:00,23.6,10.6,0.00,SE,135,4.0,4.5,57,0.00,,---,0.00,VWS V14.01,2013-11-24 00:38:00,
2013-11-23 18:43:00,23.4,10.8,0.00,SE,135,4.0,5.4,58,0.00,,---,0.00,VWS V14.01,2013-11-24 00:43:00,
2013-11-23 18:48:00,23.4,10.8,0.00,SE,135,4.9,4.9,58,0.00,,---,0.00,VWS V14.01,2013-11-24 00:48:00,
2013-11-23 18:53:00,23.4,10.8,0.00,SE,135,4.9,5.4,58,0.00,,---,0.00,VWS V14.01,2013-11-24 00:53:00,
2013-11-23 18:58:00,23.2,11.0,0.00,SE,135,4.3,5.4,59,0.00,,---,0.00,VWS V14.01,2013-11-24 00:58:00,
2013-11-23 19:03:00,23.2,11.0,0.00,SE,135,4.3,6.0,59,0.00,,---,0.00,VWS V14.01,2013-11-24 01:03:00,
2013-11-23 19:08:00,23.2,11.4,0.00,SE,135,5.6,6.0,60,0.00,,---,0.00,VWS V14.01,2013-11-24 01:08:00,
2013-11-23 19:13:00,23.0,11.2,0.00,SE,135,4.0,6.0,60,0.00,,---,0.00,VWS V14.01,2013-11-24 01:13:00,
2013-11-23 19:18:00,23.0,11.2,0.00,SE,135,4.3,5.6,60,0.00,,---,0.00,VWS V14.01,2013-11-24 01:18:00,
2013-11-23 19:23:00,23.0,11.2,0.00,SE,135,4.9,5.6,60,0.00,,---,0.00,VWS V14.01,2013-11-24 01:23:00,
2013-11-23 19:28:00,23.0,11.2,0.00,SE,135,4.0,5.6,60,0.00,,---,0.00,VWS V14.01,2013-11-24 01:28:00,
2013-11-23 19:33:00,23.0,11.2,0.00,SE,135,4.9,4.9,60,0.00,,---,0.00,VWS V14.01,2013-11-24 01:33:00,
2013-11-23 19:38:00,23.0,11.2,0.00,SE,135,4.3,5.8,60,0.00,,---,0.00,VWS V14.01,2013-11-24 01:38:00,
2013-11-23 19:43:00,23.0,11.6,0.00,SE,135,4.3,5.8,61,0.00,,---,0.00,VWS V14.01,2013-11-24 01:43:00,
2013-11-23 19:48:00,23.0,11.6,0.00,SE,135,4.3,5.6,61,0.00,,---,0.00,VWS V14.01,2013-11-24 01:48:00,
2013-11-23 19:53:00,22.8,11.4,0.00,SE,135,5.6,5.6,61,0.00,,---,0.00,VWS V14.01,2013-11-24 01:53:00,
2013-11-23 19:58:00,23.0,11.6,0.00,SE,135,5.6,6.3,61,0.00,,---,0.00,VWS V14.01,2013-11-24 01:58:00,
2013-11-23 20:03:00,23.0,11.6,0.00,SE,135,5.4,6.0,61,0.00,,---,0.00,VWS V14.01,2013-11-24 02:03:00,
2013-11-23 20:08:00,23.0,11.6,0.00,SE,135,5.8,6.5,61,0.00,,---,0.00,VWS V14.01,2013-11-24 02:08:00,
2013-11-23 20:13:00,22.8,11.4,0.00,SE,135,3.8,6.5,61,0.00,,---,0.00,VWS V14.01,2013-11-24 02:13:00,
2013-11-23 20:18:00,22.7,10.9,0.00,SE,135,3.4,4.3,60,0.00,,---,0.00,VWS V14.01,2013-11-24 02:18:00,
2013-11-23 20:23:00,22.3,10.5,0.00,SE,135,3.8,4.7,60,0.00,,---,0.00,VWS V14.01,2013-11-24 02:23:00,
2013-11-23 20:28:00,22.3,10.9,0.00,SE,135,4.3,5.4,61,0.00,,---,0.00,VWS V14.01,2013-11-24 02:28:00,
2013-11-23 20:32:00,22.3,11.3,0.00,SSE,158,4.5,5.6,62,0.00,,---,0.00,VWS V14.01,2013-11-24 02:32:00,
2013-11-23 20:37:00,22.3,11.3,0.00,SSE,158,6.3,6.3,62,0.00,,---,0.00,VWS V14.01,2013-11-24 02:37:00,
2013-11-23 20:42:00,22.3,11.3,0.00,SE,135,4.9,6.5,62,0.00,,---,0.00,VWS V14.01,2013-11-24 02:42:00,
2013-11-23 20:47:00,21.8,10.8,0.00,SSE,158,4.7,5.6,62,0.00,,---,0.00,VWS V14.01,2013-11-24 02:47:00,
2013-11-23 20:52:00,21.6,10.6,0.00,SE,135,4.0,5.6,62,0.00,,---,0.00,VWS V14.01,2013-11-24 02:52:00,
2013-11-23 20:57:00,21.4,10.4,0.00,SE,135,5.6,5.6,62,0.00,,---,0.00,VWS V14.01,2013-11-24 02:57:00,
2013-11-23 21:02:00,21.4,10.8,0.00,SSE,158,6.5,6.5,63,0.00,,---,0.00,VWS V14.01,2013-11-24 03:02:00,
2013-11-23 21:07:00,21.4,11.1,0.00,SSE,158,5.6,7.2,64,0.00,,---,0.00,VWS V14.01,2013-11-24 03:07:00,
2013-11-23 21:12:00,21.2,11.0,0.00,SSE,158,3.8,7.2,64,0.00,,---,0.00,VWS V14.01,2013-11-24 03:12:00,
2013-11-23 21:17:00,21.2,11.0,0.00,SSE,158,4.3,6.0,64,0.00,,---,0.00,VWS V14.01,2013-11-24 03:17:00,
2013-11-23 21:22:00,21.2,11.0,0.00,SSE,158,4.9,7.8,64,0.00,,---,0.00,VWS V14.01,2013-11-24 03:22:00,
2013-11-23 21:27:00,21.0,11.1,0.00,SE,135,3.6,7.8,65,0.00,,---,0.00,VWS V14.01,2013-11-24 03:27:00,
2013-11-23 21:32:00,21.0,11.1,0.00,South,180,3.6,4.7,65,0.00,,---,0.00,VWS V14.01,2013-11-24 03:32:00,
2013-11-23 21:37:00,20.7,10.8,0.00,SE,135,3.8,4.9,65,0.00,,---,0.00,VWS V14.01,2013-11-24 03:37:00,
2013-11-23 21:42:00,20.7,10.8,0.00,SSE,158,4.0,5.6,65,0.00,,---,0.00,VWS V14.01,2013-11-24 03:42:00,
2013-11-23 21:47:00,20.9,11.0,0.00,South,180,4.3,8.1,65,0.00,,---,0.00,VWS V14.01,2013-11-24 03:47:00,
2013-11-23 21:52:00,20.7,11.1,0.00,SSE,158,5.6,8.1,66,0.00,,---,0.00,VWS V14.01,2013-11-24 03:52:00,
2013-11-23 21:57:00,20.9,11.3,0.00,SSE,158,4.9,8.1,66,0.00,,---,0.00,VWS V14.01,2013-11-24 03:57:00,
2013-11-23 22:00:00,22.3,12.3,0.00,South,180,7.6,7.6,65,0.00,,---,0.00,VWS V14.01,2013-11-24 04:00:00,
2013-11-23 22:01:00,22.3,12.3,0.00,South,180,7.6,7.6,65,0.00,,---,0.00,VWS V14.01,2013-11-24 04:01:00,
2013-11-23 22:02:00,21.0,11.1,0.00,SSE,158,4.9,8.5,65,0.00,,---,0.00,VWS V14.01,2013-11-24 04:02:00,
2013-11-23 22:03:00,22.1,12.2,0.00,South,180,7.4,10.1,65,0.00,,---,0.00,VWS V14.01,2013-11-24 04:03:00,
2013-11-23 22:04:00,21.9,12.0,0.00,South,180,7.2,10.1,65,0.00,,---,0.00,VWS V14.01,2013-11-24 04:04:00,
2013-11-23 22:05:00,21.9,12.0,0.00,South,180,5.4,10.1,65,0.00,,---,0.00,VWS V14.01,2013-11-24 04:05:00,
2013-11-23 22:06:00,21.9,12.0,0.00,South,180,6.3,10.1,65,0.00,,---,0.00,VWS V14.01,2013-11-24 04:06:00,
2013-11-23 22:07:00,20.7,10.8,0.00,South,180,3.8,8.5,65,0.00,,---,0.00,VWS V14.01,2013-11-24 04:07:00,
2013-11-23 22:08:00,21.9,12.0,0.00,South,180,8.7,10.1,65,0.00,,---,0.00,VWS V14.01,2013-11-24 04:08:00,
2013-11-23 22:12:00,20.7,10.4,0.00,SSE,158,3.4,8.5,64,0.00,,---,0.00,VWS V14.01,2013-11-24 04:12:00,
2013-11-23 22:17:00,21.0,11.1,0.00,SSE,158,4.3,5.8,65,0.00,,---,0.00,VWS V14.01,2013-11-24 04:17:00,
2013-11-23 22:22:00,20.9,11.0,0.00,South,180,10.5,10.5,65,0.00,,---,0.00,VWS V14.01,2013-11-24 04:22:00,
2013-11-23 22:27:00,21.0,11.1,0.00,South,180,6.0,10.5,65,0.00,,---,0.00,VWS V14.01,2013-11-24 04:27:00,
2013-11-23 22:32:00,21.4,11.5,0.00,SSE,158,5.4,6.5,65,0.00,,---,0.00,VWS V14.01,2013-11-24 04:32:00,
2013-11-23 22:37:00,21.4,11.5,0.00,South,180,8.7,8.7,65,0.00,,---,0.00,VWS V14.01,2013-11-24 04:37:00,
2013-11-23 22:42:00,21.2,11.3,0.00,SE,135,5.8,8.7,65,0.00,,---,0.00,VWS V14.01,2013-11-24 04:42:00,
2013-11-23 22:47:00,21.2,11.6,0.00,South,180,6.0,7.6,66,0.00,,---,0.00,VWS V14.01,2013-11-24 04:47:00,
2013-11-23 22:52:00,21.2,11.6,0.00,South,180,9.2,9.2,66,0.00,,---,0.00,VWS V14.01,2013-11-24 04:52:00,
2013-11-23 22:56:00,20.7,13.4,0.00,South,180,4.3,7.6,73,0.00,,---,0.00,VWS V14.01,2013-11-24 04:56:00,
2013-11-23 22:57:00,22.3,12.7,0.00,South,180,8.7,12.5,66,0.00,,---,0.00,VWS V14.01,2013-11-24 04:57:00,
2013-11-23 22:58:00,20.7,13.4,0.00,South,180,6.3,7.6,73,0.00,,---,0.00,VWS V14.01,2013-11-24 04:58:00,
2013-11-23 22:59:00,20.7,13.4,0.00,South,180,4.9,7.6,73,0.00,,---,0.00,VWS V14.01,2013-11-24 04:59:00,
2013-11-23 23:00:00,20.7,13.1,0.00,South,180,4.9,4.9,72,0.00,,---,0.00,VWS V14.01,2013-11-24 05:00:00,
2013-11-23 23:01:00,20.7,13.1,0.00,SSE,158,4.7,4.9,72,0.00,,---,0.00,VWS V14.01,2013-11-24 05:01:00,
2013-11-23 23:02:00,20.7,13.1,0.00,South,180,5.4,5.4,72,0.00,,---,0.00,VWS V14.01,2013-11-24 05:02:00,
2013-11-23 23:03:00,21.9,12.0,0.00,South,180,4.0,10.1,65,0.00,,---,0.00,VWS V14.01,2013-11-24 05:03:00,
2013-11-23 23:08:00,21.9,12.0,0.00,South,180,5.4,10.1,65,0.00,,---,0.00,VWS V14.01,2013-11-24 05:08:00,
2013-11-23 23:13:00,21.8,11.8,0.00,SSE,158,5.6,10.1,65,0.00,,---,0.00,VWS V14.01,2013-11-24 05:13:00,
2013-11-23 23:18:00,21.4,12.2,0.00,SSE,158,8.5,8.5,67,0.00,,---,0.00,VWS V14.01,2013-11-24 05:18:00,
2013-11-23 23:23:00,21.0,11.5,0.00,SSE,158,5.6,8.5,66,0.00,,---,0.00,VWS V14.01,2013-11-24 05:23:00,
2013-11-23 23:28:00,20.9,11.6,0.00,SSE,158,4.0,8.5,67,0.00,,---,0.00,VWS V14.01,2013-11-24 05:28:00,
2013-11-23 23:33:00,20.5,11.3,0.00,SSE,158,6.0,6.0,67,0.00,,---,0.00,VWS V14.01,2013-11-24 05:33:00,
2013-11-23 23:38:00,20.7,12.1,0.00,South,180,4.9,7.2,69,0.00,,---,0.00,VWS V14.01,2013-11-24 05:38:00,
2013-11-23 23:43:00,20.3,11.8,0.00,SSE,158,5.4,7.2,69,0.00,,---,0.00,VWS V14.01,2013-11-24 05:43:00,
2013-11-23 23:48:00,20.3,12.8,0.00,SSE,158,7.4,7.4,72,0.00,,---,0.00,VWS V14.01,2013-11-24 05:48:00,
2013-11-23 23:53:00,20.7,13.4,0.00,SSE,158,5.8,7.6,73,0.00,,---,0.00,VWS V14.01,2013-11-24 05:53:00,
2013-11-23 23:58:00,20.7,13.4,0.00,South,180,6.3,7.6,73,0.00,,---,0.00,VWS V14.01,2013-11-24 05:58:00,